Regional Weather Roundup
Issued by NWS New Orleans/Baton Rouge, LA

Home | Current Version | Previous Version | Graphics & Text | Print | Product List | Glossary On
Versions: 1 2 3 4 5 6 7 8 9 10 11 12 13 14 15 16 17 18 19 20 21 22 23 24 25 26 27 28 29 30 31 32 33 34 35 36 37 38 39 40 41 42 43 44 45 46 47 48 49 50
917
ASUS44 KLIX 221701
RWRLIX
NEW ORLEANS REGIONAL WEATHER ROUNDUP
NATIONAL WEATHER SERVICE NEW ORLEANS LA
1200 PM CDT FRI AUG 22 2014

NOTE: "FAIR" INDICATES FEW OR NO CLOUDS BELOW 12,000 FEET WITH NO
      SIGNIFICANT WEATHER AND/OR OBSTRUCTIONS TO VISIBILITY.
      SKY/WX - SKY CONDITION AND SIGNIFICANT WEATHER.
      TMP - AIR TEMPERATURE.     DP    - DEWPOINT TEMPERATURE.
      RH  - RELATIVE HUMIDITY.   PRES  - PRESSURE.
      HI  - HEAT INDEX.          WCI   - WIND CHILL INDEX.

*  THESE STATIONS ARE NOT NWS OR FAA STATIONS AND ARE NOT UNDER
   NWS QUALITY CONTROL.

LAZ038-040-048-061>063-065>067-069-221800-
SOUTHEAST LOUISIANA

CITY           SKY/WX    TMP DP  RH WIND       PRES   REMARKS
N.O. AUDUBON     N/A     93  77  60 MISG        N/A  HX 107
N.O. INTL ARPT MOSUNNY   89  75  63 N9        30.12S HX  99
N.O. LAKEFRONT SUNNY     87  75  67 N7        30.13S HX  96
N.O. DOWNTOWN*   N/A     90  72  55 NW7       30.12F HX  96
SLIDELL        MOSUNNY   91  75  59 NW7       30.11F HX 101
BATON ROUGE    PTSUNNY   88  72  58 CALM      30.12F
BOOTHVILLE     SUNNY     89  73  59 N7        30.13S HX  97
BELLE CHASSE   PTSUNNY   89  73  59 VRB5      30.11S HX  97
BOGALUSA*      PTSUNNY   90  75  59 N5        30.13F HX 100
GALLIANO*      NOT AVBL
NEW ROADS*     PTSUNNY   86  76  70 MISG      30.12F HX  96
GONZALES*        N/A     89  76  66 NW5       30.11F HX 100
HAMMOND*       NOT AVBL
HOUMA*         MOSUNNY   91  72  52 N6        30.12S HX  98
PORT FOURCHON* SUNNY     91  72  52 NE6       30.13F HX  98

$$

MSZ070-080>082-221800-
SOUTHERN MISSISSIPPI

CITY           SKY/WX    TMP DP  RH WIND       PRES   REMARKS
MCCOMB         MOSUNNY   89  71  55 VRB5      30.13F HX  95
GULFPORT       MOSUNNY   94  73  50 NE6       30.10F HX 103
BILOXI         MOSUNNY   94  73  51 VRB3      30.11S HX 103
PASCAGOULA     SUNNY     93  73  52 N8        30.10F HX 102
STENNIS ARPT*  MOSUNNY  N/A N/A N/A VRB5      30.12S

$$

COASTAL OBSERVATIONS
LAKE AND NEARSHORE STATIONS

STATION/POSITION TIME  TEMP    WIND        PRES    WAVE
                       AIR SEA DIR/SP/G            HT/PER
                 (UTC) (F)     (DEG/KT/KT) (MB)    (FT/S)
PASCAGOULA       1600   93      30/  4/  8 1019.3
WAVELAND YACHT   1600   87     330/  3/  4 1019.3
GRAND ISLE       1600   88 89   10/  5/  6 1020.8
SOUTHWEST PASS   1600   91 87  360/  7/ 10 1020.3
NEW CANAL        1600   84 84   10/  5/  6 1020.6
SHELL BEACH      1600   83 83  360/  6/  6 1020.1

OFFSHORE STATIONS

STATION/POSITION TIME  TEMP    WIND        PRES    WAVE
                       AIR SEA DIR/SP/G            HT/PER
                 (UTC) (F)     (DEG/KT/KT) (MB)    (FT/S)
64 S DAUPHIN ISL 1617   86 89  340/  8/  8 1020.0

$$




USA.gov is the U.S. government's official web portal to all federal, state and local government web resources and services.